Location: Unspecified
(0.0000°N, 0.0000°E)
Time: 15:42:37
(UTC+00:00)

deb r/b Ablestar - Pass Details

Date: 14 April 2026
Orbit: 780 x 880 km, 66.7° (Epoch: 13 May)

Event Time Altitude Azimuth Distance (km) Brightness Sun altitude
Exits shadow 04:29:24 26° 198° (SSW) 1,538 ? -22.4°
Maximum altitude 04:32:35 87° 110° (ESE) 793 ? -21.6°
Drops below altitude 10° 04:37:55 10° 21° (NNE) 2,326 ? -20.3°
Sets 04:40:17 0° 20° (NNE) 3,248 ? -19.7°
